VER CABALLO | Hipódromo Argentino de Palermo

Turf

»

Calendario de Carreras

»

Ver Caballo

Nombre Fecha de Nac. Sexo Pelaje Padre
MISIL FOQUITO 11-11-2013 MACHO ALAZAN CITY DWELLER (USA)
Madre Abuelo Materno Criador Caballeriza
LUZ SERRANA SERRANO KIT BUSTINGORRI, RAUL HECTOR ARA. GRAL. BELGRANO (LP)

Performance

Fecha Premio Hipódromo Distancia Posición
Fecha Premio Hipódromo Distancia Posición
2021-02-23 LUX LUCIS (2011) LA PLATA 1200 5
2021-02-02 ARTIC PRINCE LA PLATA 1000 5
2021-01-24 POTRI CHECK LA PLATA 1200 5
2021-01-16 TRY TWICE (2015) LA PLATA 1100 5
2021-01-05 EMMANUEL (2013) LA PLATA 1200 6
2020-12-06 SABAT HUSSON (2012) LA PLATA 1000 10
2020-10-13 HANDICAP FANCY CRUZ (USA) LA PLATA 1300 8
2020-03-10 POLYMELUS LA PLATA 1300 4
2020-02-20 FIRST GUY (2011) LA PLATA 1000 1
2020-01-24 TEMPOROSO (1998) SAN ISIDRO 1200 1
2020-01-14 TIA GALLARDA (2012) LA PLATA 1200 8
2019-12-26 ARISTOCITY (2011) LA PLATA 1100 2
2019-12-05 MOGUR (2012) LA PLATA 1100 3
2019-11-03 EL BARON ROJO (2007) LA PLATA 1300 2
2019-10-19 ARISTOCITY (2011) LA PLATA 1200 2
2019-10-10 PARTICULA PALERMO 1200 8
2019-09-10 BARRANQUERO LA PLATA 1100 4
2019-08-22 ZAPATA LA PLATA 1200 3
2019-07-28 ENCANTADA GLORI (2012) LA PLATA 1100 6
2019-05-25 TOUCH OF PINK (2018) SAN ISIDRO 1200 15
2019-05-07 PRODICE LA PLATA 1100 9
2019-04-13 CALORICA (1999) SAN ISIDRO 1100 3
2019-04-02 MAGI APPEAL (2009) LA PLATA 1200 3
2019-03-21 ORCADA SALE (2015) LA PLATA 1000 7
2019-02-26 VAHREN LA PLATA 1100 3
2019-01-19 FIRIOUS KEY (2015) LA PLATA 1100 4
2019-01-06 SECOND WIND (2017) LA PLATA 1000 3
2018-12-11 SUBLIMACION (2010) LA PLATA 1100 8
2018-11-24 YOU'RE THE KING (2011) LA PLATA 1000 7
2018-11-04 INGREDIENTE (2012) LA PLATA 1000 3
2018-10-11 BE MY BABY (2013) LA PLATA 1000 2
2018-09-19 WATER LEVEL (2015) (ALTERNATIVA) SAN ISIDRO 1100 1
2018-08-30 STRIPES SONG LA PLATA 1100 7
2018-08-10 SKYMPY (2011) SAN ISIDRO 1200 8
2018-07-25 LE PETIT ROI SAN ISIDRO 1200 5
2018-07-12 GREEK SYMBOL (2014) LA PLATA 1000 7
2018-05-08 MANEJO INC (2015) LA PLATA 1000 7
2018-04-17 BLENHEIM LA PLATA 1000 8
2018-03-27 FANCY CRUZ (USA) (2DO.TURNO) LA PLATA 1100 9
2018-01-23 SAN KIRICO (2008) LA PLATA 1000 1
2017-12-21 IMPORTANT RIDE (2DO.TURNO) LA PLATA 1000 3
2017-10-31 MISS CATENA (2002) LA PLATA 1100 4
2017-10-17 CLARO LA PLATA 1000 3
2017-09-26 MOROSITO (1999) LA PLATA 1100 3
2017-07-18 HIDDEN TRAMP (2007) (2DO.TURNO) LA PLATA 1100 9
2017-01-26 SAN KIRICO (2008) (3ER.TURNO) LA PLATA 1000 6
2017-01-05 CAFRUNE (2009) (2DO.TURNO) LA PLATA 1100 6
2016-11-10 SABALO (3ER.TURNO) LA PLATA 1000 8
Av. del Libertador 4101 // Ciudad Autónoma de Buenos Aires // Pcia. de Buenos Aires // Argentina (54-11) 4778-2800
Copyright © 2011 Hipódromo Argentino de Palermo® S.A., todos los derechos reservados.
El titular de los datos personales tiene la facultad de ejercer el derecho de acceso a los mismos en forma gratuita a intervalos no inferiores a seis meses, salvo que se acredite un interés legítimo al efecto conforme lo establecido en el artículo 14, inciso 3 de la Ley N 25.326. La DIRECCIÓN NACIONAL DE PROTECCIÓN DE DATOS PERSONALES, Organo de Control de la Ley N 25.326, tiene la atribución de atender las denuncias y reclamos que se interpongan con relación al incumplimiento de las normas sobre protección de datos personales.
Resolución de pantalla optima: 1024 x 768
Formulario
Nº 960/NM
Data Fiscal